Regional Weather Roundup
Issued by NWS

Home | Current Version | Previous Version | Text Only | Print | Product List | Glossary Off
Versions: 1 2 3 4 5 6 7 8 9 10 11 12 13 14 15 16 17 18 19 20 21 22 23 24 25 26 27 28 29 30 31 32 33 34 35 36 37 38 39 40 41 42 43 44 45 46 47 48 49 50

000
ASUS44 KMEG 230000
RWRTN
TENNESSEE HOURLY STATE WEATHER ROUNDUP
NATIONAL WEATHER SERVICE MEMPHIS TN
700 PM CDT TUE JUL 22 2014

TNZ002-004-019-021-049-052-054-088>092-230100-
WEST TENNESSEE

CITY           SKY/WX    TMP DP  RH WIND       PRES   REMARKS
MEMPHIS INTL   MOSUNNY   88  69  53 NW6       30.03S HX  92
NWS MEMPHIS      N/A     89 N/A N/A MISG        N/A
JACKSON        MOSUNNY   88  71  57 NW5       30.03S HX  94
DYERSBURG      SUNNY     88  66  48 W3        30.04S HX  90
PARIS          SUNNY     84  72  65 CALM      30.05R
$$

TNZ008-025-027-028-033-062-065-066-230100-
NORTH MIDDLE TENNESSEE

CITY           SKY/WX    TMP DP  RH WIND       PRES   REMARKS
NASHVILLE      MOSUNNY   86  71  60 W3        30.04S HX  91
CLARKSVILLE    SUNNY     90  69  50 S8        30.03R HX  94
COOKEVILLE     PTCLDY    88  77  70 CALM      30.07S HX 100
CROSSVILLE     PTCLDY    81  69  67 N3        30.13S
$$

TNZ061-075-076-078-094-096-097-230100-
SOUTH MIDDLE TENNESSEE

CITY           SKY/WX    TMP DP  RH WIND       PRES   REMARKS
WINCHESTER     CLOUDY    75  73  94 SE9       30.09R
SHELBYVILLE    SUNNY     88  73  62 W3        30.07R HX  96
$$

TNZ017-018-042-046-047-230100-
NORTHEAST TENNESSEE

CITY           SKY/WX    TMP DP  RH WIND       PRES   REMARKS
TRI CITIES     PTCLDY    86  65  49 CALM      30.10S
ELIZABETHTON   CLEAR     75  66  73 CALM      30.12R
$$

TNZ012-013-036-069-073-074-230100-
CENTRAL EAST TENNESSEE

CITY           SKY/WX    TMP DP  RH WIND       PRES   REMARKS
KNOXVILLE      MOCLDY    84  70  62 S5        30.07R
OAK RIDGE      PTCLDY    86  71  60 SW3       30.08R HX  91
$$

TNZ083-085-099-230100-
SOUTHEAST TENNESSEE

CITY           SKY/WX    TMP DP  RH WIND       PRES   REMARKS
CHATTANOOGA    CLOUDY    81  72  74 CALM      30.07S
$$

SKY/WX REPORTED AS FAIR MEANS FEW OR NO CLOUDS BELOW
12 THOUSAND FEET.




USA.gov is the U.S. government's official web portal to all federal, state and local government web resources and services.